Wind_Speed
73 80 84 92 100 102 99 97 98 98 100 101 101 103 105 106 108 112 115 117 119 126 130 133 136 137 138 142 145 147 149 148 153 157 160 162 162 163 158 154 143 130 114 107 99 90 79 80 77 71 67 62 62 62
61 68 75 80 89 97 100 102 103 104 105 106 107 107 107 109 111 113 116 118 121 124 128 130 133 137 141 142 144 147 148 149 152 155 153 151 152 142 135 126 114 108 101 87 82 76 76 72 68 62 59 54 57 55
51 57 63 68 73 84 95 100 101 104 105 105 107 109 110 110 112 111 112 114 116 120 121 123 126 133 136 136 139 145 148 145 145 142 133 130 125 111 104 100 94 91 84 74 69 70 62 62 62 58 56 53 51 51
26 29 37 53 63 69 78 87 96 103 106 106 108 112 110 112 112 113 114 115 114 117 121 125 128 131 132 136 137 137 134 129 128 124 112 103 98 91 86 81 76 74 71 68 65 62 58 54 51 50 49 48 45 44
30 34 39 42 47 46 52 58 71 80 90 93 100 107 115 116 114 117 117 118 119 124 129 134 137 137 132 125 121 122 117 111 102 96 91 86 80 71 71 68 66 64 61 57 54 52 49 46 45 43 44 43 41 40
28 31 35 39 42 44 48 52 56 61 65 73 80 87 100 105 113 117 122 125 130 132 131 127 118 111 107 104 101 96 91 85 81 78 72 66 62 59 59 59 55 53 51 49 47 44 41 39 37 35 35 37 38 37
30 33 35 38 43 46 50 55 59 63 68 72 76 80 83 89 94 97 101 103 102 101 100 99 97 91 85 80 79 76 71 66 61 58 56 54 52 52 50 49 47 45 43 40 38 36 34 31 32 31 32 32 34 34
21 24 29 32 36 38 42 44 47 51 55 58 62 66 69 73 74 77 76 76 76 75 75 75 74 69 66 62 59 57 54 52 50 49 48 47 45 42 41 40 40 38 35 32 31 29 29 29 27 26 26 26 27 27
16 18 21 23 27 29 31 35 38 40 42 44 46 49 52 54 56 57 56 57 57 57 59 58 54 50 50 50 50 47 45 42 40 39 37 37 37 37 36 35 32 30 29 28 25 24 23 22 23 25 26 26 26 25
9 11 14 17 19 22 25 28 31 33 35 37 39 41 42 42 43 45 46 47 47 47 44 40 40 42 42 42 40 38 37 36 36 34 33 33 32 31 29 26 26 26 24 23 21 20 21 20 19 21 22 23 25 24
9 7 8 10 13 16 19 21 23 25 27 29 31 31 32 33 34 34 33 33 32 33 35 35 35 35 35 35 34 34 34 32 32 30 30 29 28 27 26 23 21 21 21 20 20 19 20 20 18 16 16 17 18 18
16 13 11 9 9 11 13 15 17 19 21 22 23 23 25 26 26 27 27 28 29 29 29 29 31 29 29 30 31 30 29 27 26 25 25 24 23 22 21 20 19 21 19 20 17 15 16 16 17 17 18 18 17 18
20 16 14 13 12 11 11 12 13 14 15 16 19 19 21 22 22 23 23 23 23 24 23 25 25 25 26 28 27 25 23 22 23 22 23 21 20 19 19 19 19 18 18 20 21 19 18 17 17 17 16 16 15 17
25 22 19 15 13 12 12 11 11 10 11 13 15 16 17 18 18 17 18 18 19 19 21 23 23 24 27 27 25 23 21 20 21 22 21 20 19 18 21 21 21 20 21 22 22 22 22 21 19 17 16 15 14 15
29 26 23 19 16 13 11 11 10 10 9 9 9 9 9 9 11 12 12 13 14 15 17 18 19 21 19 18 19 19 18 20 20 20 22 22 21 22 22 22 24 25 24 23 24 22 22 22 21 20 18 16 14 13
35 31 27 24 21 18 14 12 11 11 11 10 10 10 10 10 11 12 13 14 14 15 17 19 19 18 15 15 15 16 21 21 21 23 24 24 25 26 26 26 26 26 26 25 25 23 23 22 21 21 20 19 17 15
41 37 34 29 26 24 21 19 16 15 15 15 14 15 15 15 15 15 16 15 14 13 14 13 14 13 14 15 15 19 21 22 23 25 26 26 28 28 27 27 27 28 27 27 27 26 24 24 23 21 21 21 20 18
49 43 37 35 33 30 28 26 24 21 20 20 19 19 18 17 16 16 16 16 14 13 13 13 14 12 15 16 14 18 21 23 24 26 26 26 27 28 28 28 28 29 29 28 29 30 30 28 26 24 24 24 24 24
53 48 42 36 34 32 30 27 25 22 20 19 20 20 19 18 16 16 15 13 13 12 12 14 16 17 17 20 22 24 26 26 27 28 29 31 31 32 33 31 30 31 32 30 30 31 33 33 32 31 30 28 25 25
52 50 45 40 33 30 29 27 24 21 17 15 15 17 17 16 17 17 17 17 16 16 17 18 18 18 19 20 19 21 24 26 28 30 32 33 33 34 35 35 35 35 35 33 33 34 34 34 33 34 33 33 31 31
51 50 48 43 38 31 28 27 26 25 23 19 17 16 17 18 20 18 18 19 19 19 20 20 22 24 24 25 27 28 28 30 32 33 34 36 34 33 34 37 37 38 36 36 37 37 37 35 36 36 35 35 34 34
51 49 47 45 40 36 30 28 29 30 29 27 26 24 22 21 22 21 19 20 20 18 19 21 23 25 28 29 29 30 31 33 35 37 38 38 39 39 37 36 35 35 36 37 38 41 39 37 36 36 37 37 37 36
49 47 46 45 42 35 30 28 28 31 32 30 29 29 28 29 28 27 25 25 22 19 19 21 23 24 26 29 30 32 33 35 36 38 39 40 40 39 40 40 39 37 36 37 37 37 37 37 38 36 37 37 37 40
45 45 44 42 40 36 30 27 27 29 34 34 33 32 31 30 31 31 30 30 27 26 26 27 27 28 30 32 33 34 36 38 38 39 39 39 41 43 43 44 42 39 37 38 40 40 39 37 37 37 37 38 37 39
42 41 39 38 39 36 32 29 27 28 30 34 34 34 34 34 35 36 33 32 31 32 33 33 32 33 34 36 37 39 39 39 39 39 38 36 35 36 36 39 41 43 43 41 39 39 39 39 39 39 38 36 38 38
37 38 37 35 35 34 32 32 29 28 30 33 35 34 35 37 37 37 37 36 35 35 37 37 37 38 38 39 41 43 45 45 46 47 46 45 44 44 43 43 42 36 36 38 40 40 38 37 37 37 37 36 36 37
34 35 34 32 34 32 32 32 30 31 32 35 37 38 36 36 38 38 37 36 35 36 37 38 39 40 41 44 46 46 45 46 47 48 47 45 43 42 42 43 42 42 39 36 35 36 38 36 35 34 34 32 32 34
32 33 34 32 32 31 32 34 34 35 35 37 40 40 39 37 37 37 37 36 36 36 37 38 38 39 41 43 45 45 46 47 46 46 46 43 41 40 40 41 40 39 38 36 36 35 34 33 31 31 32 31 28 29
31 32 33 32 31 30 31 34 36 37 37 39 41 43 42 41 41 40 38 38 38 37 37 38 39 39 41 43 44 44 44 45 46 45 45 43 42 38 33 34 37 38 38 38 36 36 34 32 31 30 30 30 29 30
32 31 32 32 31 31 33 36 39 40 41 43 43 44 42 43 45 43 41 40 39 39 39 39 39 40 41 43 43 42 42 42 41 40 42 40 40 41 37 32 31 34 36 36 34 32 33 32 28 27 28 28 26 26
35 33 33 33 34 33 35 38 41 43 44 46 46 47 44 43 46 47 46 45 43 41 41 41 41 43 43 44 45 46 45 42 40 39 37 34 37 38 35 35 34 32 33 33 31 29 28 29 28 26 25 25 25 25
38 37 36 35 36 36 37 39 42 45 48 50 50 49 45 45 47 47 44 44 43 43 44 44 44 44 44 44 45 44 44 44 42 42 39 38 39 36 31 32 32 30 30 30 29 26 25 24 25 25 25 25 25 24
40 39 38 37 38 39 40 40 42 46 52 55 56 54 48 50 51 49 48 47 47 46 47 47 46 45 45 45 45 44 43 41 41 40 39 37 37 35 30 29 29 28 27 27 26 25 23 22 22 22 22 23 24 24
Wind_Direction
204 207 210 211 214 217 220 221 223 228 230 232 235 238 238 238 241 243 246 248 250 250 252 255 257 260 262 264 266 268 270 272 273 275 276 278 281 283 285 287 289 289 288 287 289 291 289 284 282 284 283 282 279 275
215 218 220 220 220 221 224 223 228 231 234 234 237 240 242 242 244 246 247 249 251 253 255 257 259 262 264 266 268 271 273 273 274 276 278 279 282 287 287 288 287 287 285 287 288 287 284 286 283 281 282 280 278 278
226 223 225 226 228 227 226 228 233 236 239 241 243 244 246 247 250 251 253 255 257 258 259 261 263 264 265 268 269 271 270 272 275 279 284 285 287 285 285 285 282 282 286 287 285 282 279 279 282 282 281 279 278 279
229 233 241 239 237 234 233 234 237 238 241 245 246 247 248 249 250 252 255 257 260 263 264 265 267 267 268 268 269 271 276 279 282 284 284 284 283 283 281 280 282 282 283 282 282 282 284 283 280 280 279 279 279 278
221 225 229 234 239 240 245 248 248 246 243 247 248 251 251 251 255 255 259 261 263 264 264 264 265 267 269 272 277 280 280 279 280 280 280 279 279 279 279 281 279 279 280 282 281 281 281 281 279 279 279 278 278 278
234 234 233 231 230 232 236 236 238 238 241 243 246 249 252 254 254 255 256 256 257 259 262 266 270 273 275 276 276 275 276 276 276 275 276 277 278 279 275 275 279 279 280 280 279 278 277 277 276 277 279 282 283 282
243 244 244 243 244 242 244 243 241 239 240 240 242 243 245 246 248 251 254 257 261 264 268 271 271 271 271 273 273 272 271 273 274 275 276 276 274 275 277 279 279 280 278 276 277 279 281 281 283 284 284 285 285 288
249 246 245 244 244 245 247 248 249 250 250 250 251 252 253 255 257 259 259 260 261 262 264 266 267 270 270 270 270 272 274 274 274 273 274 275 277 277 277 277 275 273 274 276 279 283 283 285 285 284 285 284 282 282
272 267 264 260 259 257 257 256 254 253 253 252 252 253 254 255 255 257 258 259 261 263 264 266 268 271 273 272 272 274 275 275 275 276 276 275 273 273 273 271 272 272 274 275 277 282 284 285 286 286 287 289 290 290
293 280 273 267 262 260 259 259 258 257 255 256 256 255 254 256 258 259 260 260 261 261 266 272 273 271 270 271 274 276 278 278 278 276 272 269 270 268 266 266 268 269 274 279 283 282 283 286 289 289 286 286 288 290
3 339 313 292 281 272 267 264 263 262 261 259 258 257 258 258 259 260 263 266 270 273 272 270 269 270 271 274 276 275 275 273 270 268 267 266 266 265 263 261 264 270 273 277 283 291 294 295 294 292 296 301 299 296
17 8 355 338 318 300 289 283 278 273 269 267 266 265 266 266 268 268 269 267 265 265 267 268 269 270 273 274 275 275 270 271 272 272 273 272 269 267 268 266 270 272 267 275 270 279 288 293 292 296 303 306 309 308
22 13 5 357 346 332 324 316 307 299 294 288 282 278 272 266 263 263 262 262 263 262 265 266 268 272 276 276 272 270 273 272 272 271 273 278 271 268 268 270 265 269 270 271 271 276 281 282 290 294 302 310 312 313
20 19 14 5 352 345 338 330 322 314 303 291 283 275 269 267 264 262 263 263 263 262 264 267 272 273 272 273 271 269 269 271 277 281 280 272 266 263 265 259 261 265 264 269 270 269 279 282 285 291 293 297 304 312
18 18 17 14 9 358 344 338 333 330 321 306 299 291 289 289 286 283 283 277 273 272 273 273 273 272 265 269 269 263 266 267 268 267 267 265 266 264 263 265 265 269 266 268 271 270 272 274 281 285 288 290 292 299
19 20 18 16 15 12 4 352 340 331 330 329 335 340 339 334 331 326 321 313 302 290 278 272 271 269 264 268 276 272 269 270 271 267 268 266 267 267 267 267 271 275 274 275 273 277 279 276 272 278 283 285 283 282
19 17 18 17 13 12 10 6 359 354 350 346 344 346 345 344 337 333 323 310 296 291 290 290 294 297 291 290 286 277 280 283 281 279 279 279 278 280 283 283 280 280 281 280 279 278 277 278 279 277 275 277 278 277
15 14 14 17 17 12 7 6 5 2 359 356 354 350 345 336 328 321 313 310 307 303 303 297 297 299 294 288 288 288 286 283 283 287 288 288 290 292 290 289 286 283 283 279 277 278 277 273 269 269 273 274 271 272
11 12 12 11 15 16 12 8 8 6 1 353 347 347 344 339 331 326 320 316 314 311 305 298 297 296 290 292 294 292 294 295 294 291 289 289 290 289 288 289 286 284 284 283 279 277 275 273 272 269 264 261 262 264
4 6 8 8 5 9 13 11 7 3 357 353 345 342 338 332 331 336 334 330 329 324 316 316 313 312 309 304 299 294 293 291 291 290 289 288 288 288 289 289 289 287 285 282 281 279 280 280 276 274 272 269 263 257
357 359 2 4 1 357 359 8 4 359 359 353 347 343 342 339 335 340 338 330 331 332 328 323 318 317 315 310 309 307 304 301 299 298 297 297 296 292 289 286 285 284 285 285 284 283 279 275 274 275 273 272 270 269
349 352 356 358 360 355 349 353 359 359 355 351 348 346 340 338 336 335 337 329 333 337 326 319 315 313 313 312 312 309 306 303 301 300 302 302 301 300 298 293 290 287 284 282 281 281 281 280 277 274 272 271 271 268
341 345 349 351 352 353 349 344 350 355 354 351 345 345 341 335 332 330 332 330 333 328 321 313 310 311 311 310 310 307 307 304 304 303 303 301 300 298 296 294 293 291 288 284 282 280 279 277 276 275 272 270 268 268
334 339 342 344 344 345 347 344 342 348 353 349 345 342 340 336 330 327 327 327 331 327 319 316 315 314 311 309 308 308 306 306 307 305 302 300 300 300 297 295 295 293 288 285 284 283 281 278 275 274 270 269 268 266
329 332 335 338 338 338 340 341 339 340 346 348 347 341 336 334 330 327 327 325 324 322 319 317 317 314 312 310 309 308 309 309 307 305 303 302 300 295 290 284 284 286 289 288 285 282 280 278 276 274 272 269 267 266
324 327 329 332 332 333 334 335 336 335 339 342 344 342 337 333 330 327 325 325 323 320 317 318 315 312 311 309 309 310 311 311 310 308 310 310 308 306 303 302 299 292 286 284 284 285 283 280 277 276 275 273 269 268
323 322 324 328 328 329 329 331 332 331 333 333 337 339 335 332 327 324 323 322 319 314 314 314 313 312 310 309 309 309 310 309 308 308 309 307 305 304 302 300 298 297 296 293 287 283 282 283 282 279 276 273 272 269
320 318 319 323 323 325 326 327 328 328 328 328 330 333 333 332 327 324 323 322 318 317 315 313 311 308 307 307 307 308 308 307 307 306 306 306 306 304 301 299 298 297 296 291 287 285 283 281 276 272 269 265 258 258
315 314 314 316 318 320 321 323 325 324 324 325 327 329 332 331 327 325 326 323 320 318 316 315 311 309 308 308 308 307 307 309 309 309 309 309 308 306 302 298 297 296 293 290 288 287 287 285 281 275 272 271 268 260
311 309 310 311 314 318 318 320 322 321 322 323 325 328 331 332 327 326 327 324 321 320 320 318 315 313 312 310 309 308 310 311 313 312 312 313 309 308 310 306 298 293 291 291 291 290 288 287 285 281 276 272 268 264
306 306 307 308 310 314 315 318 318 317 319 320 324 326 329 330 328 326 328 325 322 322 322 319 318 316 317 316 314 315 316 318 317 314 315 313 308 307 309 306 303 299 295 294 293 291 287 285 284 281 275 272 269 267
302 303 306 305 306 309 312 313 315 316 317 317 320 324 328 329 326 325 326 325 323 324 323 321 320 319 318 317 316 317 318 319 319 319 320 318 313 313 312 307 305 302 298 296 296 293 289 286 283 281 278 274 270 267
297 300 303 303 304 307 308 310 313 315 315 316 319 321 327 328 326 328 327 326 324 324 322 321 321 321 319 318 318 320 321 322 320 319 319 318 312 313 315 310 306 303 301 299 298 297 293 288 284 282 281 279 275 271
Height
10138 10146 10156 10167 10176 10185 10197 10208 10216 10222 10229 10236 10242 10246 10255 10263 10266 10269 10271 10274 10275 10270 10268 10268 10266 10266 10262 10258 10255 10247 10243 10240 10230 10222 10215 10209 10205 10198 10191 10184 10178 10166 10152 10141 10133 10133 10133 10113 10108 10110 10106 10105 10098 10094
10147 10149 10155 10166 10175 10181 10188 10197 10202 10207 10212 10219 10224 10232 10236 10240 10245 10248 10250 10249 10249 10249 10245 10244 10242 10241 10238 10234 10230 10222 10212 10206 10199 10192 10190 10186 10182 10173 10162 10160 10141 10131 10121 10130 10119 10114 10100 10098 10090 10091 10086 10087 10078 10075
10140 10147 10153 10161 10167 10174 10178 10186 10192 10195 10202 10206 10210 10215 10220 10223 10226 10229 10230 10229 10228 10227 10223 10221 10216 10212 10209 10207 10200 10188 10174 10172 10170 10168 10166 10162 10153 10140 10138 10131 10123 10108 10101 10104 10100 10088 10090 10082 10074 10072 10069 10067 10065 10061
10133 10140 10145 10152 10158 10163 10168 10174 10180 10183 10186 10190 10194 10196 10201 10203 10207 10207 10206 10205 10203 10201 10198 10191 10185 10181 10175 10170 10163 10158 10155 10153 10147 10142 10139 10131 10124 10121 10115 10106 10102 10093 10088 10082 10078 10073 10071 10070 10065 10059 10055 10052 10049 10047
10121 10126 10131 10137 10144 10149 10155 10159 10165 10168 10172 10175 10176 10179 10182 10185 10186 10185 10184 10181 10177 10171 10161 10156 10150 10148 10147 10145 10143 10138 10133 10127 10120 10118 10114 10110 10105 10102 10091 10087 10081 10076 10074 10070 10065 10061 10057 10055 10051 10048 10043 10040 10038 10036
10108 10112 10116 10121 10125 10129 10133 10136 10140 10143 10145 10147 10150 10151 10156 10160 10160 10155 10153 10146 10139 10133 10129 10126 10126 10127 10128 10126 10121 10113 10107 10106 10103 10097 10094 10089 10084 10080 10074 10069 10068 10065 10060 10056 10053 10050 10046 10042 10038 10036 10032 10029 10025 10022
10097 10100 10102 10105 10108 10110 10114 10116 10118 10120 10121 10123 10122 10123 10122 10122 10122 10124 10123 10120 10117 10113 10110 10110 10107 10103 10107 10105 10097 10094 10090 10085 10083 10079 10074 10070 10066 10063 10060 10058 10055 10052 10049 10045 10042 10039 10035 10033 10028 10026 10022 10019 10016 10013
10092 10091 10093 10093 10095 10096 10098 10100 10101 10102 10103 10104 10104 10104 10104 10104 10104 10104 10103 10102 10100 10096 10095 10091 10088 10090 10087 10084 10077 10072 10070 10067 10064 10061 10059 10055 10054 10052 10049 10047 10043 10041 10038 10036 10033 10030 10027 10023 10020 10017 10014 10011 10009 10006
10084 10084 10083 10082 10083 10083 10084 10085 10085 10086 10085 10085 10085 10085 10085 10085 10084 10084 10085 10083 10081 10079 10076 10074 10075 10071 10067 10062 10059 10057 10055 10053 10051 10049 10047 10043 10041 10040 10039 10038 10035 10032 10029 10027 10024 10022 10020 10017 10013 10010 10007 10004 10001 9999
10081 10079 10077 10076 10076 10074 10073 10073 10072 10071 10071 10070 10070 10070 10070 10069 10068 10067 10066 10066 10066 10063 10060 10059 10058 10055 10052 10049 10047 10045 10043 10041 10039 10038 10036 10034 10033 10031 10030 10028 10026 10023 10021 10019 10017 10016 10013 10010 10007 10004 10001 9998 9995 9992
10077 10074 10072 10070 10069 10068 10066 10065 10063 10062 10060 10059 10057 10057 10056 10056 10055 10054 10053 10051 10049 10047 10046 10046 10045 10042 10040 10038 10036 10036 10034 10032 10030 10029 10027 10025 10024 10023 10021 10020 10018 10016 10014 10012 10010 10007 10005 10003 10001 9998 9995 9992 9990 9987
10076 10073 10070 10067 10064 10062 10060 10058 10056 10054 10052 10049 10048 10047 10045 10044 10042 10041 10039 10039 10038 10038 10038 10036 10033 10031 10030 10028 10027 10026 10024 10023 10022 10021 10019 10018 10017 10015 10014 10013 10011 10010 10008 10005 10003 10002 10000 9998 9996 9993 9990 9987 9984 9982
10078 10073 10069 10065 10061 10058 10055 10051 10048 10046 10043 10041 10039 10038 10036 10035 10034 10034 10033 10032 10030 10028 10027 10024 10023 10022 10021 10020 10019 10018 10017 10015 10014 10013 10012 10011 10010 10008 10007 10006 10004 10003 10001 10000 9998 9996 9994 9992 9990 9988 9985 9982 9979 9977
10077 10072 10067 10063 10059 10056 10052 10049 10045 10043 10041 10039 10037 10035 10033 10031 10028 10026 10024 10023 10020 10019 10018 10016 10015 10014 10013 10012 10011 10010 10009 10008 10007 10006 10006 10004 10002 10001 9999 9998 9996 9995 9993 9993 9992 9990 9988 9986 9984 9982 9980 9978 9975 9972
10080 10074 10068 10063 10058 10054 10051 10048 10045 10042 10039 10036 10034 10031 10028 10025 10022 10020 10017 10015 10013 10012 10010 10009 10008 10007 10006 10005 10004 10002 10001 10000 9999 9999 9997 9995 9994 9992 9991 9989 9988 9987 9986 9985 9984 9983 9981 9979 9977 9975 9974 9973 9971 9969
10081 10075 10069 10064 10059 10054 10050 10046 10043 10040 10036 10033 10030 10026 10022 10020 10017 10015 10012 10010 10008 10006 10005 10004 10003 10001 10000 9999 9997 9996 9993 9993 9993 9991 9989 9988 9986 9984 9982 9982 9981 9979 9978 9977 9975 9974 9972 9972 9970 9969 9967 9967 9966 9964
10083 10076 10069 10063 10057 10052 10047 10043 10039 10035 10031 10028 10025 10022 10018 10016 10013 10011 10010 10007 10005 10003 10002 10000 9998 9996 9995 9994 9992 9990 9988 9987 9985 9983 9982 9981 9978 9976 9976 9975 9973 9971 9969 9967 9965 9964 9963 9962 9962 9961 9960 9959 9958 9958
10083 10076 10070 10063 10057 10050 10044 10040 10036 10032 10028 10025 10022 10019 10016 10014 10012 10010 10007 10005 10002 9999 9997 9995 9993 9992 9989 9987 9987 9984 9982 9980 9977 9976 9974 9972 9970 9968 9965 9964 9962 9960 9958 9957 9956 9954 9953 9951 9950 9949 9949 9949 9949 9949
10084 10077 10071 10064 10059 10053 10047 10042 10037 10033 10029 10025 10022 10018 10015 10012 10009 10006 10004 10001 9998 9995 9992 9989 9986 9986 9985 9982 9979 9977 9975 9973 9971 9969 9966 9963 9961 9958 9955 9953 9951 9949 9947 9946 9944 9942 9940 9939 9939 9938 9937 9937 9937 9937
10085 10078 10071 10065 10060 10055 10051 10045 10040 10036 10032 10027 10023 10019 10015 10011 10007 10004 10000 9997 9994 9991 9988 9985 9983 9981 9978 9975 9974 9970 9967 9964 9961 9958 9955 9952 9951 9948 9946 9943 9941 9938 9936 9934 9933 9931 9930 9928 9927 9926 9925 9925 9925 9924
10082 10077 10070 10065 10058 10053 10049 10044 10039 10034 10030 10025 10022 10017 10012 10007 10002 10000 9996 9992 9989 9987 9983 9980 9976 9973 9970 9967 9964 9961 9959 9955 9952 9948 9944 9940 9938 9937 9934 9931 9928 9926 9924 9923 9921 9918 9916 9915 9914 9913 9914 9913 9913 9913
10078 10072 10066 10060 10056 10048 10043 10039 10034 10029 10024 10020 10015 10011 10007 10003 9998 9994 9992 9988 9985 9982 9977 9973 9969 9965 9961 9958 9955 9952 9948 9945 9940 9936 9933 9930 9926 9922 9919 9916 9915 9913 9911 9909 9907 9904 9901 9900 9901 9900 9900 9900 9899 9899
10072 10067 10061 10055 10050 10047 10041 10035 10031 10026 10020 10015 10010 10006 10001 9996 9992 9988 9985 9981 9979 9975 9971 9967 9963 9959 9955 9951 9947 9942 9938 9934 9929 9925 9922 9918 9914 9910 9906 9902 9899 9898 9896 9892 9891 9890 9888 9887 9886 9886 9885 9885 9885 9884
10065 10060 10055 10049 10045 10041 10037 10032 10027 10022 10017 10011 10005 10000 9996 9992 9987 9981 9978 9973 9971 9967 9962 9957 9954 9951 9946 9941 9937 9933 9928 9923 9918 9914 9910 9905 9901 9895 9891 9887 9885 9884 9882 9880 9876 9873 9872 9872 9871 9870 9870 9869 9869 9869
10057 10052 10048 10043 10038 10033 10029 10025 10021 10016 10012 10008 10003 9997 9992 9986 9980 9974 9972 9968 9963 9958 9952 9948 9944 9940 9935 9929 9925 9920 9915 9910 9905 9900 9897 9894 9891 9886 9881 9876 9873 9869 9866 9864 9861 9859 9857 9856 9855 9854 9854 9854 9854 9854
10047 10043 10039 10035 10030 10025 10020 10016 10012 10008 10005 10001 9998 9993 9987 9980 9974 9969 9963 9960 9955 9949 9943 9938 9934 9929 9924 9919 9914 9908 9902 9896 9890 9885 9881 9877 9873 9868 9863 9858 9854 9854 9853 9850 9847 9844 9842 9842 9840 9840 9839 9840 9840 9840
10038 10033 10030 10027 10021 10016 10012 10008 10005 10000 9997 9993 9990 9986 9981 9976 9969 9963 9957 9953 9948 9942 9936 9930 9924 9918 9912 9906 9900 9895 9891 9885 9878 9872 9867 9863 9859 9856 9851 9845 9841 9837 9835 9835 9833 9831 9828 9827 9826 9826 9825 9825 9826 9827
10029 10024 10019 10016 10012 10008 10003 9999 9996 9992 9988 9984 9980 9976 9971 9967 9961 9956 9950 9945 9938 9933 9927 9921 9916 9910 9904 9897 9891 9885 9879 9873 9868 9861 9855 9850 9847 9843 9838 9833 9828 9824 9820 9818 9816 9814 9813 9812 9811 9811 9810 9810 9812 9812
10019 10014 10010 10007 10004 10000 9996 9991 9987 9982 9979 9975 9970 9964 9959 9954 9949 9943 9939 9933 9927 9923 9917 9911 9905 9899 9893 9886 9880 9875 9869 9863 9855 9849 9842 9836 9831 9829 9828 9823 9817 9811 9806 9803 9801 9800 9799 9798 9798 9797 9798 9798 9799 9799
10009 10004 10000 9997 9994 9990 9986 9981 9976 9972 9968 9963 9959 9954 9949 9942 9934 9929 9926 9921 9916 9910 9905 9899 9893 9887 9881 9874 9868 9863 9858 9851 9845 9839 9831 9824 9818 9813 9810 9808 9805 9800 9795 9791 9789 9789 9787 9785 9785 9786 9785 9785 9786 9786
9997 9994 9991 9987 9982 9979 9975 9970 9966 9960 9955 9949 9945 9941 9938 9934 9925 9916 9912 9906 9901 9896 9890 9884 9878 9872 9866 9859 9852 9845 9840 9837 9832 9826 9822 9816 9809 9804 9800 9795 9791 9788 9784 9780 9779 9778 9776 9774 9773 9774 9774 9773 9773 9774
9984 9982 9979 9975 9971 9968 9964 9959 9954 9949 9942 9935 9930 9927 9924 9920 9914 9908 9902 9895 9889 9883 9877 9871 9865 9860 9854 9847 9841 9835 9829 9823 9817 9811 9807 9802 9797 9793 9790 9785 9780 9777 9773 9770 9767 9767 9766 9764 9762 9762 9762 9762 9762 9762
9970 9969 9967 9963 9959 9955 9951 9949 9944 9939 9929 9921 9914 9908 9907 9903 9896 9891 9886 9881 9875 9870 9863 9857 9852 9846 9841 9835 9829 9823 9818 9812 9806 9801 9797 9792 9787 9782 9779 9775 9770 9766 9763 9760 9758 9757 9756 9754 9753 9752 9752 9751 9751 9752